EDT,Max TemperatureF,Mean TemperatureF,Min TemperatureF,Max Dew PointF,MeanDew PointF,Min DewpointF,Max Humidity, Mean Humidity, Min Humidity, Max Sea Level PressureIn, Mean Sea Level PressureIn, Min Sea Level PressureIn, Max VisibilityMiles, Mean VisibilityMiles, Min VisibilityMiles, Max Wind SpeedMPH, Mean Wind SpeedMPH, Max Gust SpeedMPH,PrecipitationIn, CloudCover, Events, WindDirDegrees
2013-3-1,46,39,31,29,27,24,85,65,45,29.81,29.74,29.67,10,9,6,24,12,29,0.00,5,,302
2013-3-2,41,35,28,24,22,20,75,60,44,29.83,29.79,29.73,10,10,7,18,10,24,T,7,Snow,308
2013-3-3,40,33,25,20,17,15,75,56,37,29.81,29.77,29.72,10,10,10,23,12,31,0.00,2,,305
2013-3-4,43,37,30,20,18,15,63,50,36,29.96,29.87,29.81,10,10,10,26,17,33,0.00,3,,295
2013-3-5,49,38,27,30,22,18,85,61,36,30.04,30.00,29.94,10,10,10,16,7,20,0.00,0,,272
2013-3-6,41,37,33,36,33,31,89,80,70,29.91,29.74,29.60,10,7,2,40,25,53,0.83,8,Rain-Snow,42
2013-3-7,45,39,33,31,30,28,89,71,53,30.08,29.96,29.83,10,9,2,26,18,33,0.04,8,Snow,349
2013-3-8,39,35,31,34,29,27,92,81,70,30.18,30.05,30.02,10,4,0,24,16,30,0.13,8,Fog-Snow,328
2013-3-9,58,42,26,27,23,16,75,47,19,30.32,30.25,30.18,10,10,10,18,9,23,0.00,0,,352
2013-3-10,47,36,24,36,29,21,92,76,60,30.39,30.34,30.31,10,7,0,14,5,18,0.00,2,Fog,98
2013-3-11,54,41,28,47,37,27,100,86,71,30.32,30.22,30.09,10,6,0,20,8,27,0.00,3,Fog,163
2013-3-12,55,48,40,52,49,34,93,82,70,30.06,29.84,29.72,10,7,1,26,16,40,0.74,7,Rain,189
2013-3-13,51,42,33,33,28,22,82,58,34,29.96,29.91,29.86,10,10,10,24,10,30,0.00,2,,286
2013-3-14,43,37,30,20,14,10,54,42,29,30.02,29.98,29.93,10,10,10,30,16,39,0.00,3,,286
2013-3-15,50,39,28,29,17,11,64,47,29,30.06,29.93,29.78,10,10,10,23,10,32,0.00,1,,249
2013-3-16,43,38,33,33,30,24,92,72,51,29.92,29.81,29.75,10,10,6,18,8,21,0.12,8,Rain,53
2013-3-17,41,35,29,31,25,17,92,66,40,30.30,30.09,29.93,10,8,2,18,8,25,0.00,3,,344
2013-3-18,44,37,30,42,31,16,100,75,49,30.37,30.16,29.90,10,5,1,23,12,31,1.10,7,Rain,66
2013-3-19,53,45,37,43,38,21,96,69,42,29.87,29.77,29.72,10,6,0,21,9,26,0.27,6,Rain,329
2013-3-20,50,40,29,28,18,11,69,45,21,29.96,29.90,29.82,10,10,10,26,10,37,0.00,2,,262
2013-3-21,38,33,28,28,23,8,92,66,39,29.82,29.74,29.68,10,6,0,22,11,27,0.06,6,Fog-Snow,334
2013-3-22,43,35,26,18,16,9,58,47,36,29.96,29.87,29.82,10,10,10,26,12,35,0.00,2,,279
2013-3-23,50,39,28,20,19,17,63,46,29,29.97,29.93,29.86,10,10,10,23,13,33,0.00,0,,287
2013-3-24,46,35,24,27,20,16,74,53,31,29.99,29.86,29.67,10,10,9,18,6,23,0.00,2,,39
2013-3-25,39,36,32,33,31,27,96,80,64,29.69,29.50,29.41,10,3,0,21,12,30,1.12,8,Fog-Rain-Snow,23
2013-3-26,51,42,33,35,30,23,96,66,36,29.91,29.77,29.65,10,9,6,17,8,22,T,6,Rain,290
2013-3-27,52,42,32,32,27,22,82,57,32,30.03,29.96,29.91,10,10,10,24,12,35,0.00,4,,292
2013-3-28,49,42,34,28,26,24,70,55,39,30.15,30.06,30.01,10,10,10,21,12,25,T,5,,299
2013-3-29,56,45,33,28,26,22,70,49,28,30.20,30.15,30.10,10,10,10,20,9,24,0.00,5,,298
2013-3-30,58,45,32,30,25,19,72,48,23,30.21,30.16,30.11,10,10,10,16,6,24,0.00,1,,272
2013-3-31,53,44,34,31,30,28,62,60,57,30.17,29.92,29.73,10,6,1,21,10,35,0.25,5,Rain-Snow,166